Regional Weather Roundup
Issued by NWS

Home | Current Version | Previous Version | Graphics & Text | Print | Product List | Glossary On
Versions: 1 2 3 4 5 6 7 8 9 10 11 12 13 14 15 16 17 18 19 20 21 22 23 24 25 26 27 28 29 30 31 32 33 34 35 36 37 38 39 40 41 42 43 44 45 46 47 48 49 50
000
ASUS43 KMKX 240511
RWRWI

WISCONSIN REGIONAL WEATHER ROUNDUP
NATIONAL WEATHER SERVICE MILWAUKEE/SULLIVAN WI
1200 AM CDT MON JUL 24 2017

NOTE: "FAIR" INDICATES FEW OR NO CLOUDS BELOW 12,000 FEET WITH NO
SIGNIFICANT WEATHER AND/OR OBSTRUCTIONS TO VISIBILITY.

WIZ001-002-006>008-014>016-023>028-240600-
NORTHWEST WISCONSIN

CITY           SKY/WX    TMP DP  RH WIND       PRES   REMARKS
SUPERIOR ARPT  NOT AVBL
ASHLAND        FOG       49  48  97 CALM      30.05S VSB 1/4
HAYWARD        CLEAR     58  55  90 N3        30.05R
SIREN          PTCLDY    58  56  91 CALM      30.05S
CUMBERLAND     PTCLDY    57  54  88 N5        30.05R
RICE LAKE      CLEAR     57  54  89 N5        30.04S
CHETEK         CLEAR     60  57  88 N8        30.04R
LADYSMITH      MOCLDY    59  56  91 N6        30.05S
EAU CLAIRE     CLOUDY    64  57  78 N9        30.01R
MENOMONIE      CLEAR     62  57  83 N6        30.02S
NEW RICHMOND   CLEAR     59  56  91 CALM      30.03S
OSCEOLA        CLEAR     59  59 100 N3        30.06R
$$

WIZ003>005-009-010-017-018-240600-
NORTH CENTRAL WISCONSIN

CITY           SKY/WX    TMP DP  RH WIND       PRES   REMARKS
MANITOWISH WTR CLEAR     54  54 100 N3        30.04R
ARBOR VITAE    CLEAR     55  53  94 N3        30.03R
WOODRUFF       CLEAR     55  53  94 N3        30.03R
RHINELANDER    PTCLDY    54  54 100 NE3       30.03R
EAGLE RIVER    CLEAR     51  51 100 CALM      30.03S
LAND O LAKES   CLEAR     51  51 100 CALM      30.05S
PHILLIPS       CLEAR     53  53 100 CALM      30.03R
TOMAHAWK         N/A     51  49  93 CALM      30.04R
MEDFORD        CLEAR     56  53  88 N5        30.02R
MERRILL        NOT AVBL
$$

WIZ029-030-035-036-043>047-240600-
CENTRAL WISCONSIN

CITY           SKY/WX    TMP DP  RH WIND       PRES   REMARKS
WAUSAU         CLEAR     59  54  83 N3        29.99R
MOSINEE        CLEAR     59  54  82 N8        30.01R
MARSHFIELD     CLEAR     61  53  75 NE8       30.00R
STEVENS POINT  CLEAR     57  53  86 N5        30.00R
WAUPACA        PTCLDY    63  56  78 N3        29.98R
WAUTOMA        CLEAR     62  55  77 NE8       29.98R
WISC RAPIDS    CLEAR     63  55  75 NE6       30.00R
CAMP DOUGLAS   CLEAR     61  59  93 N3        29.98R
$$

WIZ011>013-019>022-031-037>040-048>050-240600-
NORTHEAST WISCONSIN

CITY           SKY/WX    TMP DP  RH WIND       PRES   REMARKS
ANTIGO         CLEAR     54  53  96 CALM      30.02R
SHAWANO        CLOUDY    63  56  77 N13       29.98R
OCONTO         CLOUDY    61  55  79 N6        29.97R
STURGEON BAY     N/A     62  57  83 NE10        N/A
GREEN BAY      CLOUDY    63  58  83 N13       29.96R
MANITOWOC      CLOUDY    63  58  83 N9        29.94R
APPLETON       CLOUDY    61  52  72 N12       29.96R
CLINTONVILLE   CLOUDY    61  54  77 NE10      29.98S
OSHKOSH        CLOUDY    64  56  75 N14       29.95R
$$

WIZ032>034-041-042-053>061-240600-
SOUTHWEST WISCONSIN

CITY           SKY/WX    TMP DP  RH WIND       PRES   REMARKS
LA CROSSE      CLEAR     66  61  84 NW8       29.97R
SPARTA         CLOUDY    63  58  85 N7        29.98S
VIROQUA        CLEAR     61  60  96 CALM      29.98R
BOSCOBEL       PTCLDY    66  61  84 CALM      29.95R
PRAIRIE DU CHI CLEAR     67  59  73 N5        29.95R
PLATTEVILLE    CLEAR     65  64  96 N6        29.95R
$$

WIZ056-057-062-063-064-067-068-240600-
SOUTH CENTRAL WISCONSIN

CITY           SKY/WX    TMP DP  RH WIND       PRES   REMARKS
REEDSBURG      CLOUDY    67  59  77 NE10      29.96R
BARABOO/DELLS  PTCLDY    64  55  74 NE7       29.97R
LONE ROCK      PTCLDY    68  60  75 N6        29.94R
MINERAL POINT  CLEAR     66  63  88 N8        29.94R
MADISON        CLOUDY    68  60  75 NE15G22   29.93R
MIDDLETON      CLOUDY    69  62  79 NE13      29.95R
WATERTOWN      MOCLDY    64  61  89 N12G20    29.93R
MONROE         CLEAR     66  59  77 N8        29.92R
JANESVILLE     MOCLDY    70  68  94 NE8       29.91R
$$

WIZ051-052-058>065-066-070>072-240600-
SOUTHEAST WISCONSIN

CITY           SKY/WX    TMP DP  RH WIND       PRES   REMARKS
MILWAUKEE      CLOUDY    68  62  81 N15G22    29.91R
WAUKESHA       CLOUDY    64  59  82 NE6       29.94R
MILWAUKEE/TIMM CLOUDY    64  55  72 N9        29.92R
RACINE         MOCLDY    66  62  87 N13       29.93R
KENOSHA        CLOUDY    67  61  81 N8        29.92R
FOND DU LAC    CLOUDY    65  55  70 NE15G23   29.95R
SHEBOYGAN      CLOUDY    64  60  87 N12G17    29.93R
WEST BEND      PTCLDY    61  57  88 N3        29.94R
JUNEAU         MOCLDY    63  58  85 N6        29.96R
$$

LSZ147-162-240600-
LAKE SUPERIOR

STATION/POSITION TIME  TEMP    WIND        PRES    WAVE
                       AIR SEA DIR/SP/G            HT/PER
                 (UTC) (F)     (DEG/KT/KT) (MB)    (FT/S)
W MID LAKE BUOY  0450   49 48  330/  2/  2 1017.4R   1/ 4
DEVILS ISLAND    0400   56     290/  3/  3 1017.3F
SAXON HARBOR     0440   58     200/  3/  3 1017.3R
$$

LMZ867-665-643>646-240600-
LAKE MICHIGAN

STATION/POSITION TIME  TEMP    WIND        PRES    WAVE
                       AIR SEA DIR/SP/G            HT/PER
                 (UTC) (F)     (DEG/KT/KT) (MB)    (FT/S)
CHAMBERS ISLAND  0440   64     360/ 17/ 24 1013.5S
S GREEN BAY BUOY 0500   65 72  360/ 17/ 21 1014.0
N MID LAKE BUOY  0450   62 66   60/ 17/ 21 1013.9R   5/ 6
NORTHPORT PIER   0440   63      10/ 13/ 18 1014.2R
KEWAUNEE LAKESHO 0448   63     360/  7/ 14 1012.9R
SHEBOYGAN LAKESH 0500   65      20/ 20/ 22 1012.8R
PORT WASHINGTON  0430   66     360/  5/ 11 1013.9R
ATWATER BUOY     0309   68 69   20/ 19/ 25 1012.1R
MILWAUKEE LAKESH 0450   67      10/ 16/ 21   N/A
S MID LAKE BUOY  0450   67 70   20/ 19/ 21 1011.5R   4/ 5
KENOSHA   LAKESH 0500   67      20/ 20/ 25 1012.5
$$

TC  - TEMPERATURE IN CELSIUS
VSB - VISIBILITY IN STATUTE MILES
WCI - WIND CHILL INDEX
HX  - HEAT INDEX





USA.gov is the U.S. government's official web portal to all federal, state and local government web resources and services.